COSMOS 2535

Satellite information

Favourite Embed

Satellite Type and Status

PAYLOADIN ORBIT

Key statistics

Satellite COSMOS 2535 at a glance.

Uptime

2189

Days in orbit

Revolutions

≈ 14.9

Per day

Orbit

SSO

Sun Synchronous Orbit

Inclination

97.6

Latest

Satellite identification and parameters

Extended collection of information and parameters for COSMOS 2535.

Object identification

Identified? True

Debris? False

Object name: COSMOS 2535

International designator: 2019-039A

Object number (NORAD): 44421

Object ID (CCSDS): 44421

Country: COMMONWEALTH OF INDEPENDENT STATES (CIS)

Current information (Y/N): Y

RCS size: LARGE

Orbital parameters

Period: 96.592 minutes

Inclination: 97.6172 deg

SMA: 6973.546 km

Apoapsis: 600.315 km

Periapsis: 590.507 km

RAAN: 223.6154 deg

Eccentricy: 0.0007032

Argument of periapsis: 285.2894 deg

Mean anomaly: 74.7548 deg

Mean motion: 14.90809827 rev/day

Mean motion (dot): 0.00000732 rev/day2

B* drag term: 0.000079884 1/REarth

Two-line elements (TLE)

Creation date: July 6, 2025, 10:36 p.m.

Reference frame: TEME

Reference center: EARTH

Epoch: July 6, 2025, 7:37 p.m. UTC

TLE line 0: 0 COSMOS 2535

TLE line 1: 1 44421U 19039A 25187.81759619 .00000732 00000-0 79884-4 0 9998

TLE line 2: 2 44421 97.6172 223.6154 0007032 285.2894 74.7548 14.90809827325061

Live tracking on map

Real-time ground track for satellite COSMOS 2535.

In-orbit conjunctions

There are no conjunctions computed for COSMOS 2535, at the moment. Check back to stay up to date, as we update our databases every day.

Go to all conjunctions

Associated space launch

Four satellites in the interests of the Ministry of Defense of Russia.

COSMOS 2535 was lifted into orbit during the mission ‘Soyuz 2.1v/Volga | Kosmos 2535, Kosmos 2536, Kosmos 2537, Kosmos 2538’, on board a Soyuz 2.1v space rocket.

The launch took place on July 10, 2019, 5:14 p.m. from 43/4 (43R).

For more information about the launch, click the button.

Launch to space Soyuz 2.1v/Volga | Kosmos 2535, Kosmos 2536, Kosmos 2537, Kosmos 2538
Soyuz 2.1v/Volga | Kosmos 2535, Kosmos 2536, Kosmos 2537, Kosmos 2538

Agency: N/A

Status: Launch Successful

Launch date: July 10, 2019, 5:14 p.m. UTC

Rocket: Soyuz 2.1v

Launch pad: 43/4 (43R)

Location: Plesetsk Cosmodrome, Russian Federation

...

Latest news about this satellite

News about space launch
Four Russian military satellites launched from Plesetsk Cosmodrome


Newsletter sign-up

Weekly statistics, charts and insights to help you stay on top of the space industry.